Weather History for Damascus, Syria

Change the Weather History Date:

Friday, November 16, 2012

  Actual Average Record
Temperature  
Mean Temperature 56 °F -  
Max Temperature 69 °F 63 °F 80 °F (2010)
Min Temperature 44 °F 36 °F 33 °F (2003)
Degree Days  
Heating Degree Days 8    
Growing Degree Days 6 (Base 50)    
Moisture  
Dew Point 43 °F    
Average Humidity 62    
Maximum Humidity 87    
Minimum Humidity 23    
Precipitation  
Precipitation 0.00 in 0.03 in - ()
Sea Level Pressure  
Sea Level Pressure 30.18 in    
Wind  
Wind Speed 3 mph ()    
Max Wind Speed 12 mph    
Max Gust Speed -    
Visibility 10.5 miles    
Events      
Averages and records for this station are not official NWS values.
T = Trace of Precipitation, MM = Missing Value Source: Averaged Metar Reports

Daily Weather History Graph

Daily Weather History Graph

Search for Another Location

Airport:

Trip Planner

Search our weather history database for the weather conditions in past years. The results will help you decide how hot, cold, wet, or windy it might be!

Date:

Astronomy

Nov. 16, 2012 Rise Set
Actual Time 6:06 AM EET 4:30 PM EET
Civil Twilight 5:39 AM EET 4:57 PM EET
Nautical Twilight 5:09 AM EET 5:27 PM EET
Astronomical Twilight 4:40 AM EET 5:56 PM EET
Moon 8:38 AM EET (11/16) 7:08 PM EET (11/16)
Length of Visible Light 11h 17m
Length of Day
10h 24m
Waxing Crescent, 9% of the Moon is Illuminated
Nov 16
Waxing Crescent
Nov 20
First Quarter
Nov 28
Full
Dec 6
Last Quarter
Dec 13
New

Hourly Weather History & Observations

Time (EET) Temp. Dew Point Humidity Pressure Visibility Wind Dir Wind Speed Gust Speed Precip Events Conditions
12:00 AM 48.2 °F 44.6 °F 87% 30.18 in - Calm Calm - N/A   Clear
1:00 AM 48.2 °F 44.6 °F 87% 30.18 in - Calm Calm - N/A   Clear
2:00 AM 47 °F 43 °F 80% 30.16 in 9 mi Calm Calm - -  
2:00 AM 48.2 °F 42.8 °F 82% 30.18 in - Calm Calm - N/A   Clear
3:00 AM 46.4 °F 42.8 °F 87% 30.18 in - East 2.3 mph - N/A   Clear
4:00 AM 48.2 °F 42.8 °F 82% 30.18 in - East 2.3 mph - N/A   Clear
5:00 AM 46.4 °F 42.8 °F 87% 30.18 in - Calm Calm - N/A   Clear
6:00 AM 44.6 °F 41.0 °F 87% 30.21 in - Calm Calm - N/A   Clear
7:00 AM 44.6 °F 41.0 °F 87% 30.21 in - Calm Calm - N/A   Clear
8:00 AM 51 °F 45 °F 72% 30.20 in 9 mi East 2.2 mph - -   Partly Cloudy
8:00 AM 51.8 °F 44.6 °F 76% 30.24 in - East 2.3 mph - N/A   Clear
9:00 AM 57.2 °F 46.4 °F 67% 30.24 in - East 2.3 mph - N/A   Clear
10:00 AM 60.8 °F 46.4 °F 59% 30.24 in - East 6.9 mph - N/A   Clear
11:00 AM 64.4 °F 44.6 °F 49% 30.21 in - ESE 11.5 mph - N/A   Clear
12:00 PM 66.2 °F 44.6 °F 46% 30.21 in - East 11.5 mph - N/A   Clear
1:00 PM 68.0 °F 44.6 °F 43% 30.18 in - East 9.2 mph - N/A   Clear
2:00 PM 69 °F 39 °F 23% 30.11 in 12 mi SE 8.9 mph - -   Clear
2:00 PM 69.8 °F 39.2 °F 33% 30.15 in - SE 9.2 mph - N/A   Clear
3:00 PM 69.8 °F 39.2 °F 33% 30.15 in - SE 9.2 mph - N/A   Clear
4:00 PM 68.0 °F 41.0 °F 37% 30.15 in - ESE 6.9 mph - N/A   Clear
5:00 PM 62.6 °F 41.0 °F 45% 30.15 in - East 6.9 mph - N/A   Clear
6:00 PM 60.8 °F 44.6 °F 55% 30.15 in - East 9.2 mph - N/A   Clear
7:00 PM 59.0 °F 42.8 °F 55% 30.18 in - East 6.9 mph - N/A   Clear
8:00 PM 57 °F 44 °F 50% 30.13 in 12 mi East 6.7 mph - -   Clear
8:00 PM 57.2 °F 42.8 °F 59% 30.18 in - East 6.9 mph - N/A   Clear
9:00 PM 57.2 °F 42.8 °F 59% 30.18 in - East 6.9 mph - N/A   Clear
10:00 PM 55.4 °F 41.0 °F 58% 30.18 in - East 6.9 mph - N/A   Clear
11:00 PM 53.6 °F 41.0 °F 62% 30.18 in - East 6.9 mph - N/A   Clear